Saltar para o conteúdo principal

Vila Real de S.António

ID 1210866 · 37.1871, -7.4163 mapa

Última leitura · 2026-05-09 18:00 (Europe/Lisbon)

Temperatura
20.2 °C
Humidade
68 %
Pressão
Precipitação
0.0 mm
Radiação
Velocidade do vento
Direcção do vento
Sem vento

Histórico de 24 horas

Hora (Europe/Lisbon) Temperatura Humidade Pressão Chuva Vento Direcção
2026-05-09 18:00 20.2 °C 68 % 0.0 mm
2026-05-09 17:00 20.4 °C 70 % 0.0 mm
2026-05-09 16:00 20.2 °C 68 % 0.0 mm
2026-05-09 15:00 20.4 °C 65 % 0.0 mm
2026-05-09 14:00 20.0 °C 67 % 0.0 mm
2026-05-09 13:00 19.8 °C 68 % 0.0 mm
2026-05-09 12:00 19.3 °C 71 % 0.0 mm
2026-05-09 11:00 18.4 °C 78 % 0.0 mm
2026-05-09 10:00 16.5 °C 87 % 0.0 mm
2026-05-09 09:00 16.8 °C 84 % 1.7 mm
2026-05-09 08:00 15.6 °C 89 % 1.3 mm
2026-05-09 07:00 16.3 °C 89 % 1.5 mm
2026-05-09 06:00 15.7 °C 88 % 0.0 mm
2026-05-09 05:00 16.9 °C 84 % 0.4 mm
2026-05-09 04:00 17.2 °C 80 % 0.0 mm
2026-05-09 03:00 17.0 °C 82 % 0.0 mm
2026-05-09 02:00 15.9 °C 83 % 0.0 mm
2026-05-09 01:00 15.3 °C 82 % 0.0 mm
2026-05-09 00:00 16.8 °C 77 % 0.0 mm
2026-05-08 23:00 17.1 °C 75 % 0.0 mm
2026-05-08 22:00 17.2 °C 75 % 0.0 mm
2026-05-08 21:00 17.3 °C 72 % 0.0 mm
2026-05-08 20:00 18.6 °C 65 % 0.0 mm
2026-05-08 19:00 19.4 °C 61 % 0.0 mm